TimeCST,TemperatureF,Dew PointF,Humidity,Sea Level PressureIn,VisibilityMPH,Wind Direction,Wind SpeedMPH,Gust SpeedMPH,PrecipitationIn,Events,Conditions,WindDirDegrees,DateUTC
12:15 AM,23.4,21.0,91,29.84,10.0,NE,8.1,-,N/A,,Overcast,50,2013-12-04 06:15:00
12:35 AM,23.4,21.0,91,29.83,7.0,ENE,6.9,-,N/A,Snow,Light Snow,60,2013-12-04 06:35:00
12:55 AM,23.4,21.2,91,29.82,5.0,ENE,6.9,-,N/A,Snow,Light Snow,60,2013-12-04 06:55:00
1:15 AM,23.4,21.0,91,29.82,7.0,ENE,6.9,-,N/A,Snow,Light Snow,60,2013-12-04 07:15:00
1:35 AM,23.4,21.0,91,29.82,10.0,ENE,10.4,-,N/A,Snow,Light Snow,60,2013-12-04 07:35:00
1:55 AM,23.4,20.8,90,29.83,10.0,ENE,8.1,-,N/A,,Overcast,70,2013-12-04 07:55:00
2:15 AM,23.5,21.0,90,29.84,10.0,ENE,6.9,-,N/A,,Overcast,70,2013-12-04 08:15:00
2:35 AM,23.5,21.2,91,29.84,5.0,ENE,5.8,-,N/A,Snow,Light Snow,60,2013-12-04 08:35:00
2:55 AM,23.7,21.2,90,29.81,10.0,ENE,8.1,-,N/A,,Overcast,60,2013-12-04 08:55:00
3:15 AM,23.9,21.6,91,29.80,10.0,ENE,8.1,-,N/A,,Overcast,70,2013-12-04 09:15:00
3:35 AM,23.9,21.6,91,29.80,10.0,ENE,8.1,-,N/A,,Overcast,70,2013-12-04 09:35:00
3:55 AM,23.9,21.7,91,29.79,10.0,ENE,8.1,-,N/A,,Overcast,60,2013-12-04 09:55:00
4:15 AM,23.9,21.7,91,29.79,10.0,NE,6.9,-,N/A,,Overcast,50,2013-12-04 10:15:00
4:35 AM,23.9,21.9,92,29.78,10.0,ENE,6.9,-,N/A,,Overcast,60,2013-12-04 10:35:00
4:55 AM,23.9,21.9,92,29.78,10.0,ENE,6.9,-,N/A,,Overcast,60,2013-12-04 10:55:00
5:15 AM,24.3,22.1,91,29.78,10.0,ENE,9.2,-,N/A,,Overcast,70,2013-12-04 11:15:00
5:35 AM,24.3,22.3,92,29.77,5.0,ENE,8.1,-,N/A,Snow,Light Snow,70,2013-12-04 11:35:00
5:55 AM,24.4,22.8,94,29.77,1.8,ENE,5.8,-,N/A,Snow,Light Snow,70,2013-12-04 11:55:00
6:15 AM,24.4,23.0,94,29.76,1.2,East,6.9,-,N/A,Snow,Light Snow,80,2013-12-04 12:15:00
6:35 AM,24.4,23.0,94,29.76,1.5,East,6.9,-,0.01,Snow,Light Snow,80,2013-12-04 12:35:00
6:55 AM,24.8,23.5,95,29.76,1.5,ENE,5.8,-,0.02,Snow,Light Snow,70,2013-12-04 12:55:00
7:15 AM,24.8,23.5,95,29.76,2.0,East,4.6,-,N/A,Snow,Light Snow,80,2013-12-04 13:15:00
7:35 AM,24.8,23.7,96,29.75,1.0,East,6.9,-,0.01,Snow,Light Snow,80,2013-12-04 13:35:00
7:55 AM,25.3,23.9,94,29.75,0.8,East,6.9,-,0.02,Snow,Light Snow,80,2013-12-04 13:55:00
8:15 AM,25.5,24.3,95,29.73,0.8,ENE,8.1,-,0.01,Snow,Light Snow,70,2013-12-04 14:15:00
8:35 AM,25.7,24.6,96,29.73,1.0,East,6.9,-,0.02,Snow,Light Snow,80,2013-12-04 14:35:00
8:55 AM,26.1,24.6,94,29.72,0.8,East,8.1,-,0.03,Snow,Light Snow,80,2013-12-04 14:55:00
9:15 AM,26.1,24.6,94,29.71,0.8,East,8.1,-,0.01,Snow,Light Snow,90,2013-12-04 15:15:00
9:35 AM,26.2,24.8,94,29.71,0.8,East,6.9,-,0.02,Snow,Light Snow,90,2013-12-04 15:35:00
9:55 AM,26.4,24.8,94,29.70,0.5,East,9.2,-,0.04,Snow,Snow,80,2013-12-04 15:55:00
10:15 AM,26.6,25.2,94,29.69,0.5,East,6.9,-,0.01,Snow,Light Snow,80,2013-12-04 16:15:00
10:35 AM,26.6,25.3,95,29.69,0.8,East,8.1,-,0.02,Snow,Light Snow,100,2013-12-04 16:35:00
10:55 AM,27.0,25.3,94,29.67,2.0,East,8.1,-,0.03,Snow,Light Snow,90,2013-12-04 16:55:00
11:15 AM,27.0,24.8,92,29.67,3.0,East,9.2,-,0.01,Snow,Light Snow,90,2013-12-04 17:15:00
11:35 AM,27.0,25.2,93,29.65,4.0,East,9.2,-,0.03,Snow,Light Snow,80,2013-12-04 17:35:00
11:55 AM,27.3,25.7,94,29.64,3.0,East,9.2,-,0.05,Snow,Light Snow,90,2013-12-04 17:55:00
12:15 PM,27.5,26.1,94,29.61,2.5,East,8.1,-,0.02,,Overcast,90,2013-12-04 18:15:00
12:35 PM,28.0,26.8,95,29.60,3.0,East,8.1,-,0.04,,Overcast,90,2013-12-04 18:35:00
12:55 PM,28.9,27.7,95,29.57,7.0,East,9.2,18.4,0.05,,Overcast,100,2013-12-04 18:55:00
1:15 PM,29.3,28.0,95,29.55,7.0,East,9.2,16.1,0.01,,Overcast,90,2013-12-04 19:15:00
1:35 PM,29.3,28.4,96,29.53,7.0,ESE,10.4,16.1,0.02,,Overcast,110,2013-12-04 19:35:00
1:55 PM,29.7,28.6,96,29.51,7.0,ESE,9.2,-,0.03,,Overcast,110,2013-12-04 19:55:00
2:15 PM,30.2,29.1,96,29.48,7.0,East,9.2,-,N/A,,Overcast,100,2013-12-04 20:15:00
2:35 PM,30.2,29.3,96,29.46,10.0,ESE,9.2,16.1,0.01,,Overcast,110,2013-12-04 20:35:00
2:55 PM,30.6,29.7,96,29.46,10.0,ESE,9.2,-,0.02,,Overcast,110,2013-12-04 20:55:00
3:15 PM,30.9,30.0,96,29.46,10.0,ESE,8.1,-,N/A,,Overcast,120,2013-12-04 21:15:00
3:35 PM,31.1,30.2,96,29.46,7.0,ESE,6.9,-,N/A,,Overcast,120,2013-12-04 21:35:00
3:55 PM,31.1,30.7,99,29.44,10.0,ESE,8.1,-,N/A,,Overcast,120,2013-12-04 21:55:00
4:15 PM,31.1,30.7,99,29.42,10.0,ESE,9.2,-,N/A,,Overcast,120,2013-12-04 22:15:00
4:35 PM,31.5,30.9,98,29.41,10.0,ESE,5.8,-,N/A,,Overcast,120,2013-12-04 22:35:00
4:55 PM,31.8,31.1,97,29.40,7.0,SE,6.9,-,N/A,,Overcast,130,2013-12-04 22:55:00
5:15 PM,32.0,31.5,98,29.38,7.0,SE,6.9,-,N/A,,Overcast,130,2013-12-04 23:15:00
5:35 PM,32.0,31.8,99,29.37,10.0,SE,4.6,-,N/A,,Overcast,130,2013-12-04 23:35:00
5:55 PM,32.2,31.8,99,29.36,10.0,SE,6.9,-,N/A,,Overcast,140,2013-12-04 23:55:00
6:15 PM,32.4,32.0,99,29.36,10.0,SE,4.6,-,N/A,Rain,Light Rain,140,2013-12-05 00:15:00
6:35 PM,32.4,32.0,99,29.39,5.0,WSW,4.6,-,0.01,Rain,Light Rain,240,2013-12-05 00:35:00
6:55 PM,32.0,32.0,100,29.37,3.0,Calm,Calm,-,0.03,Snow,Light Snow,0,2013-12-05 00:55:00
7:15 PM,32.0,32.0,100,29.36,2.5,Calm,Calm,-,0.01,Snow,Light Snow,0,2013-12-05 01:15:00
7:35 PM,32.0,32.0,100,29.35,3.0,Calm,Calm,-,0.02,Snow,Light Snow,0,2013-12-05 01:35:00
7:55 PM,32.0,32.0,100,29.33,2.5,Calm,Calm,-,0.03,Snow,Light Snow,0,2013-12-05 01:55:00
8:15 PM,32.0,32.0,100,29.31,10.0,Calm,Calm,-,N/A,Snow,Light Snow,0,2013-12-05 02:15:00
8:35 PM,32.0,32.0,100,29.30,10.0,Calm,Calm,-,N/A,,Overcast,0,2013-12-05 02:35:00
8:55 PM,32.0,32.0,100,29.29,10.0,SSE,3.5,-,N/A,,Overcast,150,2013-12-05 02:55:00
9:15 PM,32.0,32.0,100,29.30,10.0,SSW,3.5,-,N/A,,Overcast,200,2013-12-05 03:15:00
9:35 PM,32.0,32.0,100,29.31,4.0,SW,5.8,-,N/A,,Drizzle,220,2013-12-05 03:35:00
9:55 PM,32.2,32.2,100,29.32,5.0,WSW,13.8,19.6,N/A,,Light Drizzle,240,2013-12-05 03:55:00
10:15 PM,32.0,32.0,100,29.32,5.0,WSW,11.5,-,N/A,,Overcast,250,2013-12-05 04:15:00
10:35 PM,32.0,31.8,99,29.33,4.0,West,9.2,-,N/A,Snow,Light Snow,260,2013-12-05 04:35:00
10:55 PM,32.0,31.1,96,29.33,10.0,WSW,12.7,19.6,N/A,,Overcast,240,2013-12-05 04:55:00
11:15 PM,31.5,30.0,94,29.33,10.0,WSW,8.1,17.3,N/A,,Overcast,240,2013-12-05 05:15:00
11:35 PM,30.7,29.1,94,29.35,7.0,West,10.4,18.4,N/A,,Overcast,260,2013-12-05 05:35:00
11:55 PM,30.0,29.1,96,29.35,3.0,WSW,15.0,-,N/A,Snow,Light Snow,240,2013-12-05 05:55:00